Location: ??????
(41.3164°N, 22.6615°E)
Time: 15:08:39
(UTC+00:00)

H-2A R/B - Pass Details

Date: 30 May 2022
Orbit: 576 x 652 km, 98.5° (Epoch: 03 July)

Event Time Altitude Azimuth Distance (km) Brightness Sun altitude
Rises 18:31:12 0° 15° (NNE) 2,799 5.7 -6.5°
Reaches altitude 10° 18:33:22 10° 18° (NNE) 1,899 4.8 -6.9°
Maximum altitude 18:37:28 72° 103° (ESE) 616 1.9 -7.5°
Drops below altitude 10° 18:41:35 10° 188° (S) 1,910 4.3 -8.1°
Sets 18:43:45 0° 190° (S) 2,816 5.1 -8.4°
